Lid_Strength_Index
4 4 4 4 4 4 4 4 4 4 4 4 4 3 3 3 3 5 9 5 4 -1 -1 8 6 8 9 9 6 4 11 14 12 12 11 8 8 5 4 6 5 4 5 4 2
4 4 4 4 4 4 4 4 4 4 4 4 4 4 3 3 6 7 4 0 -1 -2 6 9 6 8 10 10 8 8 12 12 9 8 9 8 7 7 7 7 7 6 4 3 2
4 4 4 4 4 4 4 4 4 4 4 4 4 4 3 4 8 8 -2 -2 -3 -2 8 9 8 7 11 9 8 8 11 8 8 7 7 8 7 5 7 9 7 7 6 4 3
3 4 4 4 4 4 4 4 4 4 4 4 4 4 3 7 12 5 -4 -2 -3 2 9 10 9 9 11 10 8 10 8 8 8 7 7 8 7 7 6 7 5 5 4 4 4
3 3 4 4 4 4 4 4 4 4 4 4 3 3 6 9 8 3 -1 -2 0 7 9 11 8 9 11 9 8 9 8 7 7 7 7 7 8 7 7 5 4 4 4 4 4
3 3 3 3 4 4 4 4 4 4 4 4 3 3 8 12 5 0 1 2 5 8 9 11 8 7 9 8 9 7 7 8 7 7 7 8 8 7 6 5 5 5 5 4 4
3 3 3 4 4 4 4 4 4 4 4 4 3 4 8 10 2 1 3 5 5 8 9 10 9 10 8 9 6 7 10 9 8 8 8 7 10 9 6 5 6 5 5 4 4
4 3 4 4 4 4 4 4 4 4 4 3 3 6 11 4 3 4 3 4 5 7 9 9 9 10 10 6 7 10 10 13 10 8 8 8 13 8 6 6 7 6 5 5 4
4 4 4 4 4 4 4 4 4 3 2 3 6 8 8 1 4 4 4 5 7 9 9 7 9 11 9 11 12 11 15 13 12 8 9 10 12 8 6 6 7 6 5 5 5
4 4 4 4 4 5 5 4 3 4 3 2 3 8 7 6 5 5 5 4 7 8 7 10 12 12 13 13 16 15 15 13 13 10 9 10 11 9 7 7 6 6 6 5 5
4 4 5 5 5 5 7 7 8 8 5 7 7 6 5 4 4 5 5 6 7 8 11 9 12 14 12 11 11 10 13 13 12 10 11 11 11 10 8 7 7 6 6 6 5
4 4 5 5 5 5 7 9 8 7 9 5 4 4 3 5 7 6 4 7 8 11 10 11 13 11 9 10 11 12 12 13 11 10 11 12 12 10 8 8 7 7 6 6 5
4 4 4 5 5 6 7 6 6 6 9 7 5 5 5 5 7 6 6 8 9 11 11 12 10 9 10 11 10 11 13 13 13 11 10 11 13 12 9 7 7 6 5 5 5
4 4 4 5 6 7 7 5 5 6 11 9 8 5 6 6 8 4 6 8 9 10 10 11 9 11 12 11 10 13 10 10 12 13 17 11 18 13 11 10 8 7 7 6 5
4 4 5 5 8 7 6 6 6 7 16 7 8 5 8 8 8 7 6 8 11 10 10 10 11 12 13 11 9 12 9 10 11 14 14 14 17 14 11 12 10 8 7 6 5
4 5 5 6 8 6 5 6 7 11 15 9 7 8 9 9 8 7 8 8 7 9 9 9 8 11 10 8 9 9 11 11 12 14 18 15 16 15 14 11 9 8 7 6 5
5 6 6 5 8 6 6 7 11 15 9 10 11 9 10 11 9 8 9 11 12 13 13 10 10 8 8 11 9 10 13 18 19 19 20 14 16 14 10 8 8 8 7 6 5
6 7 6 5 6 6 7 9 14 10 12 10 11 9 11 10 11 10 10 11 10 11 14 14 14 11 9 10 12 12 13 17 21 21 19 14 18 13 8 7 6 6 6 5 5
7 9 7 6 5 6 8 12 12 12 9 10 10 11 11 9 9 10 11 10 10 11 13 15 13 9 8 7 8 12 14 10 16 16 18 16 13 10 8 8 8 7 6 6 5
8 8 7 4 4 6 9 12 10 8 9 9 12 11 13 11 11 11 11 9 9 8 10 12 14 11 9 8 8 10 8 14 15 21 21 18 16 15 12 11 9 8 7 6 5
7 9 6 4 5 8 12 11 8 8 8 9 11 12 12 11 11 12 12 9 8 8 9 11 13 11 10 12 12 12 13 12 12 14 19 21 17 10 10 10 9 8 7 6 6
9 12 6 5 8 12 11 9 7 9 8 9 9 10 11 10 12 12 11 10 6 8 11 10 13 14 12 10 10 12 12 12 14 15 15 16 14 9 9 9 8 8 7 6 5
11 10 6 6 11 13 11 9 8 9 10 9 9 9 9 10 13 11 10 7 7 8 10 9 14 16 14 12 10 11 11 12 15 16 16 16 14 9 9 9 8 8 7 6 5
9 11 9 9 11 12 12 10 10 8 9 9 9 9 10 11 10 11 10 7 6 7 4 7 14 14 16 13 12 13 12 12 14 16 17 15 13 12 10 10 9 8 7 6 6
9 11 9 10 9 9 11 10 9 10 9 9 10 9 10 12 12 12 9 9 7 6 8 10 13 13 12 10 11 12 12 12 14 16 16 14 12 12 10 9 9 7 7 7 6
10 8 7 8 9 10 12 11 10 9 9 10 10 9 9 11 10 12 10 10 11 8 10 10 13 13 14 11 11 13 12 12 12 12 13 13 13 9 8 7 8 8 7 7 7
7 6 6 9 9 10 10 9 9 8 8 8 9 10 9 10 8 10 9 9 10 10 10 11 12 14 16 12 12 15 13 12 12 11 12 15 12 9 9 9 8 8 7 7 7